Weather History for Audubon, IA

Change the Weather History Date:

Wednesday, January 22, 2014

  Actual Average Record
Temperature  
Mean Temperature 10 °F -  
Max Temperature 21 °F 33 °F 57 °F (1981)
Min Temperature -2 °F 13 °F -16 °F (1963)
Degree Days  
Heating Degree Days 56    
Moisture  
Dew Point 0 °F    
Average Humidity 59    
Maximum Humidity 79    
Minimum Humidity 41    
Precipitation  
Precipitation 0.00 in - - ()
Sea Level Pressure  
Sea Level Pressure 30.18 in    
Wind  
Wind Speed 12 mph (NW)    
Max Wind Speed 24 mph    
Max Gust Speed 34 mph    
Visibility 9 miles    
Events Snow    
Averages and records for this station are not official NWS values.
T = Trace of Precipitation, MM = Missing Value Source: NWS Daily Summary

Daily Weather History Graph

Daily Weather History Graph

Search for Another Location

Airport:

Trip Planner

Search our weather history database for the weather conditions in past years. The results will help you decide how hot, cold, wet, or windy it might be!

Date:

Astronomy

Jan. 22, 2014 Rise Set
Actual Time 7:40 AM CST 5:22 PM CST
Civil Twilight 7:10 AM CST 5:52 PM CST
Nautical Twilight 6:36 AM CST 6:26 PM CST
Astronomical Twilight 6:03 AM CST 6:59 PM CST
Moon No Moon Rise 10:36 AM CST (1/22)
Length of Visible Light 10h 42m
Length of Day
9h 42m
Waning Gibbous, 65% of the Moon is Illuminated
Jan 22
Waning Gibbous
Jan 23
Last Quarter
Jan 30
New
Feb 6
First Quarter
Feb 14
Full

Hourly Weather History & Observations

Time (CST) Temp. Windchill Dew Point Humidity Pressure Visibility Wind Dir Wind Speed Gust Speed Precip Events Conditions
12:15 AM 17.6 °F 10.7 °F -0.4 °F 45% 30.01 in 10.0 mi SSW 4.6 mph - N/A   Overcast
12:35 AM 17.6 °F 9.3 °F -0.4 °F 45% 30.00 in 10.0 mi SW 5.8 mph - N/A   Overcast
12:55 AM 19.4 °F 11.5 °F 1.4 °F 46% 30.00 in 10.0 mi WSW 5.8 mph - N/A   Mostly Cloudy
1:15 AM 19.4 °F 10.4 °F 1.4 °F 46% 29.99 in 10.0 mi West 6.9 mph - N/A   Overcast
1:35 AM 21.2 °F 10.9 °F 3.2 °F 46% 29.99 in 10.0 mi NW 9.2 mph 17.3 mph N/A   Overcast
1:55 AM 21.2 °F 10.9 °F 6.8 °F 54% 30.00 in 10.0 mi NNW 9.2 mph 18.4 mph N/A   Overcast
2:15 AM 21.2 °F 9.5 °F 10.4 °F 63% 30.00 in 10.0 mi NW 11.5 mph 19.6 mph N/A   Mostly Cloudy
2:35 AM 19.4 °F 6.0 °F 10.4 °F 68% 30.00 in 10.0 mi NW 13.8 mph 19.6 mph N/A   Mostly Cloudy
2:55 AM 19.4 °F 6.0 °F 10.4 °F 68% 30.00 in 10.0 mi NNW 13.8 mph 19.6 mph N/A   Overcast
3:15 AM 19.4 °F 5.5 °F 10.4 °F 68% 30.01 in 10.0 mi NNW 15.0 mph 20.7 mph N/A Snow Light Snow
3:35 AM 19.4 °F 6.6 °F 10.4 °F 68% 30.01 in 10.0 mi NNW 12.7 mph - N/A Snow Light Snow
3:55 AM 19.4 °F 10.4 °F 10.4 °F 68% 30.00 in 10.0 mi NW 6.9 mph 16.1 mph N/A   Overcast
4:15 AM 19.4 °F 9.5 °F 10.4 °F 68% 30.00 in 7.0 mi NNW 8.1 mph - N/A Snow Light Snow
4:35 AM 19.4 °F 11.5 °F 10.4 °F 68% 30.01 in 7.0 mi NNW 5.8 mph - N/A Snow Light Snow
4:55 AM 19.4 °F 6.6 °F 12.2 °F 74% 30.02 in 5.0 mi NNW 12.7 mph - N/A Snow Light Snow
5:15 AM 19.4 °F 7.9 °F 10.4 °F 68% 30.02 in 4.0 mi NNW 10.4 mph - N/A Snow Light Snow
5:35 AM 19.4 °F 4.1 °F 12.2 °F 74% 30.02 in 4.0 mi NW 18.4 mph 25.3 mph N/A Snow Light Snow
5:55 AM 17.6 °F 1.3 °F 8.6 °F 68% 30.04 in 10.0 mi NW 19.6 mph - N/A   Overcast
6:15 AM 17.6 °F 1.7 °F 8.6 °F 68% 30.05 in 10.0 mi NNW 18.4 mph 25.3 mph N/A Snow Light Snow
6:35 AM 17.6 °F 3.2 °F 8.6 °F 68% 30.06 in 7.0 mi NNW 15.0 mph 21.9 mph N/A Snow Light Snow
6:55 AM 15.8 °F -0.2 °F 6.8 °F 68% 30.07 in 7.0 mi NNW 17.3 mph 29.9 mph N/A Snow Light Snow
7:15 AM 15.8 °F 0.3 °F 6.8 °F 68% 30.08 in 7.0 mi NNW 16.1 mph 21.9 mph N/A Snow Light Snow
7:35 AM 14.0 °F 2.9 °F 5.0 °F 67% 30.09 in 10.0 mi NW 8.1 mph - N/A Snow Light Snow
7:55 AM 12.2 °F 2.9 °F 5.0 °F 73% 30.09 in 10.0 mi NW 5.8 mph - N/A   Scattered Clouds
8:15 AM 12.2 °F 2.9 °F 6.8 °F 79% 30.08 in 10.0 mi WNW 5.8 mph - N/A   Clear
8:35 AM 14.0 °F 5.1 °F 6.8 °F 73% 30.06 in 10.0 mi WNW 5.8 mph - N/A   Clear
8:55 AM 15.8 °F 10.2 °F 6.8 °F 68% 30.05 in 10.0 mi SW 3.5 mph - N/A   Scattered Clouds
9:15 AM 15.8 °F 2.7 °F 6.8 °F 68% 30.09 in 10.0 mi NW 11.5 mph - N/A   Overcast
9:35 AM 15.8 °F 4.2 °F 6.8 °F 68% 30.10 in 10.0 mi NNW 9.2 mph - N/A   Overcast
9:55 AM 17.6 °F 6.4 °F 8.6 °F 68% 30.11 in 5.0 mi WNW 9.2 mph - N/A Snow Light Snow
10:15 AM 17.6 °F 7.3 °F 8.6 °F 68% 30.10 in 10.0 mi WNW 8.1 mph - N/A   Mostly Cloudy
10:35 AM 17.6 °F 5.7 °F 8.6 °F 68% 30.10 in 10.0 mi West 10.4 mph 16.1 mph N/A   Mostly Cloudy
10:55 AM 19.4 °F 10.4 °F 8.6 °F 63% 30.10 in 10.0 mi WNW 6.9 mph - N/A   Mostly Cloudy
11:10 AM 19.4 °F 9.5 °F 8.6 °F 63% 30.11 in 10.0 mi WNW 8.1 mph - N/A   Overcast
11:35 AM 19.4 °F 6.6 °F 6.8 °F 58% 30.11 in 10.0 mi NW 12.7 mph 18.4 mph N/A   Overcast
11:55 AM 19.4 °F 3.6 °F 6.8 °F 58% 30.11 in 10.0 mi NNW 19.6 mph 25.3 mph N/A   Mostly Cloudy
12:15 PM 19.4 °F 5.5 °F 6.8 °F 58% 30.12 in 4.0 mi NW 15.0 mph 21.9 mph N/A Snow Light Snow
12:35 PM 19.4 °F 5.5 °F 8.6 °F 63% 30.12 in 5.0 mi NW 15.0 mph 18.4 mph N/A Snow Light Snow
12:55 PM 21.2 °F 6.8 °F 8.6 °F 58% 30.12 in 10.0 mi NNW 17.3 mph 23.0 mph N/A   Mostly Cloudy
1:15 PM 21.2 °F 6.8 °F 8.6 °F 58% 30.12 in 10.0 mi NW 17.3 mph 25.3 mph N/A Snow Light Snow
1:35 PM 19.4 °F 5.0 °F 6.8 °F 58% 30.12 in 4.0 mi NNW 16.1 mph 19.6 mph N/A Snow Light Snow
1:55 PM 19.4 °F 4.5 °F 8.6 °F 63% 30.14 in 2.5 mi NNW 17.3 mph 24.2 mph N/A Snow Light Snow
2:15 PM 19.4 °F 2.1 °F 6.8 °F 58% 30.15 in 10.0 mi NNW 24.2 mph 31.1 mph N/A   Scattered Clouds
2:35 PM 17.6 °F 1.3 °F 1.4 °F 49% 30.16 in 10.0 mi NNW 19.6 mph 33.4 mph N/A   Mostly Cloudy
2:55 PM 15.8 °F -2.7 °F 1.4 °F 53% 30.18 in 7.0 mi NNW 24.2 mph 29.9 mph N/A   Scattered Clouds
3:15 PM 15.8 °F -2.3 °F -2.2 °F 45% 30.20 in 10.0 mi NNW 23.0 mph 34.5 mph N/A   Clear
3:35 PM 12.2 °F -7.5 °F -2.2 °F 53% 30.22 in 10.0 mi NNW 24.2 mph 32.2 mph N/A   Clear
3:55 PM 10.4 °F -9.9 °F -9.4 °F 41% 30.24 in 10.0 mi NW 24.2 mph 31.1 mph N/A   Clear
4:15 PM 10.4 °F -7.7 °F -7.6 °F 44% 30.25 in 10.0 mi NW 18.4 mph 26.5 mph N/A   Clear
4:35 PM 8.6 °F -10.5 °F -9.4 °F 44% 30.27 in 10.0 mi NNW 19.6 mph 29.9 mph N/A   Clear
4:55 PM 6.8 °F -13.4 °F -9.4 °F 48% 30.29 in 10.0 mi NNW 20.7 mph 27.6 mph N/A   Clear
5:15 PM 6.8 °F -12.9 °F -9.4 °F 48% 30.30 in 10.0 mi NNW 19.6 mph 26.5 mph N/A   Clear
5:35 PM 5.0 °F -14.2 °F -9.4 °F 52% 30.32 in 10.0 mi NNW 17.3 mph 25.3 mph N/A   Clear
5:55 PM 3.2 °F -15.3 °F -11.2 °F 51% 30.34 in 10.0 mi NNW 15.0 mph 23.0 mph N/A   Clear
6:15 PM 3.2 °F -16.5 °F -9.4 °F 56% 30.35 in 10.0 mi NW 17.3 mph 21.9 mph N/A   Clear
6:35 PM 3.2 °F -16.5 °F -9.4 °F 56% 30.37 in 10.0 mi NNW 17.3 mph 20.7 mph N/A   Clear
6:55 PM 1.4 °F -18.2 °F -11.2 °F 56% 30.38 in 10.0 mi NW 16.1 mph 28.8 mph N/A   Clear
7:15 PM 1.4 °F -17.6 °F -11.2 °F 56% 30.39 in 10.0 mi NNW 15.0 mph 26.5 mph N/A   Clear
7:35 PM 1.4 °F -16.9 °F -11.2 °F 56% 30.39 in 10.0 mi NNW 13.8 mph 25.3 mph N/A   Clear
7:55 PM -0.4 °F -22.8 °F -11.2 °F 60% 30.39 in 10.0 mi NNW 20.7 mph 28.8 mph N/A   Clear
8:15 PM -0.4 °F -22.8 °F -11.2 °F 60% 30.40 in 10.0 mi NW 20.7 mph 25.3 mph N/A   Clear
8:35 PM -0.4 °F -22.3 °F -13.0 °F 55% 30.41 in 10.0 mi NW 19.6 mph 25.3 mph N/A   Clear
8:55 PM -0.4 °F -19.9 °F -13.0 °F 55% 30.43 in 10.0 mi NW 15.0 mph 25.3 mph N/A   Clear
9:15 PM -0.4 °F -20.5 °F -13.0 °F 55% 30.44 in 10.0 mi NNW 16.1 mph 21.9 mph N/A   Clear
9:35 PM -0.4 °F -21.2 °F -13.0 °F 55% 30.45 in 10.0 mi NNW 17.3 mph 25.3 mph N/A   Clear
9:55 PM -0.4 °F -21.7 °F -13.0 °F 55% 30.44 in 10.0 mi NNW 18.4 mph 25.3 mph N/A   Clear
10:15 PM -2.2 °F -21.5 °F -13.0 °F 60% 30.47 in 10.0 mi NNW 13.8 mph 24.2 mph N/A   Clear
10:35 PM -2.2 °F -22.2 °F -13.0 °F 60% 30.48 in 10.0 mi NNW 15.0 mph 20.7 mph N/A   Clear
10:55 PM -2.2 °F -22.2 °F -13.0 °F 60% 30.49 in 10.0 mi NNW 15.0 mph 21.9 mph N/A   Clear
11:15 PM -2.2 °F -20.7 °F -14.8 °F 55% 30.50 in 10.0 mi NNW 12.7 mph 18.4 mph N/A   Clear
11:35 PM -2.2 °F -21.5 °F -14.8 °F 55% 30.51 in 10.0 mi NNW 13.8 mph 20.7 mph N/A   Clear
11:55 PM -2.2 °F -22.2 °F -14.8 °F 55% 30.52 in 10.0 mi NNW 15.0 mph 20.7 mph N/A   Clear